Tracking 19562 objects as of 23-Mar-2019
HD Live streaming from Space Station
objects crossing your sky now

FENGYUN 1C DEB

Track FENGYUN 1C DEB now!
10-day predictions


NORAD ID: 30331
Int'l Code: 1999-025AAS
Perigee: 845.4 km
Apogee: 989.2 km
Inclination: 99.2 °
Period: 103.2 minutes
Semi major axis: 7288 km
RCS: 0.0259 m2 (small)
Launch date: May 10, 1999
Source: People's Republic of China (PRC)
Launch site: Taiyaun Space Center, China (TSC)

Note: This is SATELLITE DEBRIS
aabbcc
Your satellite tracking list
Your tracking list is empty




NASA's NSSDC Master Catalog

Two Line Element Set (TLE):
1 30331U 99025AAS 19081.79360875  .00000213  00000-0  18356-3 0  9991
2 30331  99.2456 112.2443 0098626 250.0843 171.5338 13.95278560618499
Source of the keplerian elements: AFSPC